Location: Wald
(31.7579°N, 86.6655°W)
Time: 11:44:39
(UTC+00:00)

Cosmos 676 Rocket - Pass Details

Date: 14 July 2020
Orbit: 753 x 785 km, 74.0° (Epoch: 08 August)

Event Time Altitude Azimuth Distance (km) Brightness Sun altitude
Exits shadow 07:57:51 54° 332° (NNW) 927 4.4 -28.8°
Drops below altitude 10° 08:02:13 10° 9° (N) 2,323 7.3 -28.3°
Sets 08:04:38 0° 13° (NNE) 3,258 8.3 -28.0°
